Find NNS 30050

NORAD ID: 1514 Int'l Des: 1965-065 Owner: BUWEPS Country: US operational
LEOCIRCULARPOLARONEWEB_TYPE

現在のビュー

3D地球を読み込み中...

About NNS 30050

NNS 30050 (NORAD 1514) is a satellite by BUWEPS of US. It operates in LEO, CIRCULAR, POLAR, ONEWEB_TYPE orbit

次回通過

Passes for default location (London). Set your location on the main map for personalized predictions.

高度履歴

Loading altitude history...

軌道要素

1 01514U 65065F 26195.59885737 .00000064 00000-0 10467-3 0 9999
2 01514 89.9951 227.8919 0072185 83.7968 30.0960 13.35374306964929
Epoch: Jul 14, 2026 • Age: 7 hours

現在のステータス

高度 1113.6 km
遠地点 / 近地点 N/A
速度 7.31 km/s
衛星直下点 23.77°N, 148.52°E
タイプ other

Most Searched